This is the latest recevied weather packets stored in our database for station/object DG3GAI-6. If no packets are shown the sender has not sent any weather packets the latest 1 day(s).
| Time | Temp. | Humidity | Pressure | Rain* | Wind** | Luminosity | Snow |
|---|---|---|---|---|---|---|---|
| 1778077261 | 11.11° C | 95% | 1012 hPa | - | - | - | - |
| 1778075454 | 11.11° C | 97% | 1011 hPa | - | - | - | - |
| 1778070032 | 11.67° C | 93% | 1011 hPa | - | - | - | - |
| 1778068225 | 11.67° C | 95% | 1011 hPa | - | - | - | - |
| 1778057381 | 11.67° C | 81% | 1011 hPa | - | - | - | - |
| 1778055574 | 11.11° C | 84% | 1011 hPa | - | - | - | - |
| 1778051959 | 10.56° C | 87% | 1011 hPa | - | - | - | - |
| 1778050152 | 10.56° C | 89% | 1011 hPa | - | - | - | - |
| 1778048345 | 10° C | 87% | 1011 hPa | - | - | - | - |
| 1778044730 | 10° C | 84% | 1011 hPa | - | - | - | - |
| 1778042923 | 10° C | 84% | 1011 hPa | - | - | - | - |
| 1778041116 | 9.44° C | 82% | 1011 hPa | - | - | - | - |
| 1778039308 | 10° C | 80% | 1011 hPa | - | - | - | - |
| 1778037501 | 10° C | 81% | 1011 hPa | - | - | - | - |
| 1778035694 | 10° C | 79% | 1012 hPa | - | - | - | - |
| 1778032079 | 10.56° C | 79% | 1012 hPa | - | - | - | - |
| 1778030272 | 10.56° C | 78% | 1012 hPa | - | - | - | - |
| 1778028465 | 10.56° C | 77% | 1012 hPa | - | - | - | - |
| 1778021236 | 11.67° C | 78% | 1013 hPa | - | - | - | - |
| 1778015814 | 12.22° C | 81% | 1013 hPa | - | - | - | - |
| 1778008585 | 13.33° C | 86% | 1012 hPa | - | - | - | - |
| 1778001356 | 13.89° C | 83% | 1012 hPa | - | - | - | - |
* Rain since midnight (hover to see other rain measurements)
** Current wind speed in m/s (hover to see current wind gust speed)